Showing default

JAY-C, 62668

Orbit data source: Space-Track

JAY-C, 62668 is a Canadian payload satellite in SSO that was launched on Tue, 14 Jan 2025 UTC via an FALCON 9 launch vehicle from the Air Force Western Test Range (AFWTR). Payload-class satellites include a variety of spacecraft equipped with specific instruments for various scientific and technological missions. These include communications satellites like Starlink; space stations such as the ISS; scientific satellites like the Hubble; Earth observation satellites from companies like Planet Labs, Umbra, and HawkEye 360; GPS; miniature CubeSats for education and research; and military/defense satellites.

Loading next visibility...
Identifier
62668, 2025-009BM
Orbit
SSO
Country
Flag of CACA
Related business
Manufacturer
UTIAS-SFL
Mission
Operational Commercial Imaging
Bus & Motor
DEFIANT, Unknown motor
Mass
~35 kg wet, ~35 kg dry
Launch date (UTC)
2025-01-14 (1 year ago)
Launch vehicle
FALCON 9
Launch site
Air Force Western Test Range (AFWTR)
Object type
Payload
Rocket body
Debris
Shape & HBR
Box + 2 Pan, 0.6 m
Radar Cross Section
0.165 m², Medium (>0.1 m² and < 1m²)

Expand to show TLE details & history
Last TLE update: 10 hours ago

TLE from 10 hours ago
0 JAY-C
1 62668U 25009BM  26126.50738575  .00003767  00000-0  16760-3 0  9997
2 62668  97.3959 206.1087 0005957 117.8019 242.3822 15.22078116130032
Epoch: 2026-05-06T12:10Z
TLE epoch observation values (Epoch: 2026-05-06T12:10:38.128Z)
Latitude
-0.00002°
Longitude
159.08295°
Altitude
504.568 km
Speed
7.611 km/s
True Right ascension
13h 44m 26s
True Declination
0° 00' 00"
Sunlit
Object was in full shadow at epoch
Visualization orbit readout
Latitude
Unknown
Longitude
Unknown
Altitude
Unknown
Speed
Unknown
Apparent Right ascension
Unknown
Apparent Declination
Unknown
Sunlit
N/A
Visualization observer readout
Local Sidereal Time
06:05:05
Azimuth
Unknown
Elevation
Unknown
Doppler factor
Unknown
Orbital elements
Apogee altitude
500.631 km
Perigee altitude
492.441 km
Semi-major axis
6,874.673 km
Eccentricity
0.0006
Inclination
97.3959°
RAAN
206.1087°
Arg. of periapsis
117.8019°
True anomaly
242.32174°
Mean anomaly
242.3822°
Eccentric anomaly
242.35197°
Mean motion
3.80772 °/min
Orbital period
94.54 mins
BSTAR
0.0001676
Loading maneuver chart data...
Computing Atmospheric mass density...
Loading historical data...
Loading historical data...
Loading historical data...
Loading historical data...
Loading historical data...
Loading historical data...
Loading historical data...

Documentation

Showing up to 5 results
|